Location: Azul
(36.7830°S, 59.8500°W)
Time: 03:26:29
(UTC-03:00)

ISS - Pass Details

Date: 18 October 2019
Orbit: 411 x 421 km, 51.6° (Epoch: 14 October)

Event Time Altitude Azimuth Distance (km) Brightness Sun altitude
Rises 21:13:19 0° 295° (WNW) 2,354 0.5 -22.0°
Reaches altitude 10° 21:15:29 10° 287° (WNW) 1,499 -0.5 -22.4°
Maximum altitude 21:18:40 40° 216° (SW) 643 -2.4 -22.9°
Enters shadow 21:19:26 34° 182° (S) 720 -2.4 -23.1°
